Date,TemperatureHighF,TemperatureAvgF,TemperatureLowF,DewpointHighF,DewpointAvgF,DewpointLowF,HumidityHigh,HumidityAvg,HumidityLow,PressureMaxIn,PressureMinIn,WindSpeedMaxMPH,WindSpeedAvgMPH,GustSpeedMaxMPH,PrecipitationSumIn
2013-1-1,46.0,41.7,37.9,43.0,38.6,33.2,89,88,83,30.12,29.99,13,0,16,0.24
2013-1-2,41.0,37.8,35.8,38.0,33.5,31.4,90,85,80,30.22,30.06,4,0,7,0.00
2013-1-3,45.5,35.6,26.4,32.0,27.8,22.5,86,74,50,30.39,30.18,5,0,44,0.00
2013-1-4,46.0,32.5,23.5,29.9,24.1,20.2,88,73,49,30.46,30.36,4,0,6,0.00
2013-1-5,47.1,35.4,24.1,34.9,27.3,20.8,88,74,51,30.43,30.26,4,0,7,0.04
2013-1-6,49.1,41.3,33.1,38.4,34.7,26.3,89,78,60,30.33,30.15,8,1,10,0.00
2013-1-7,49.8,35.2,25.0,33.4,27.3,21.4,87,74,51,30.43,30.31,5,0,12,0.00
2013-1-8,52.5,37.0,26.2,38.6,30.9,23.1,89,79,56,30.42,30.29,5,0,6,0.00
2013-1-9,49.6,45.9,39.0,46.5,42.4,35.2,89,87,83,30.47,30.34,2,0,3,0.18
2013-1-10,63.7,52.0,45.5,55.5,48.0,42.5,89,86,74,30.46,30.14,10,0,11,0.00
2013-1-11,68.2,63.9,59.5,62.3,59.0,54.5,88,84,73,30.16,30.07,15,2,17,0.06
2013-1-12,69.6,64.6,61.2,65.2,60.2,56.3,88,86,78,30.14,30.01,10,1,11,0.11
2013-1-13,68.0,63.3,51.1,61.3,58.1,47.5,89,83,74,30.10,29.96,16,2,18,1.06
2013-1-14,50.7,41.2,35.8,47.5,38.2,32.0,89,89,88,30.33,30.10,19,0,22,1.14
2013-1-15,42.1,39.5,37.8,39.1,36.6,34.6,90,89,89,30.22,30.00,18,0,20,2.40
2013-1-16,46.0,42.0,39.7,43.0,39.2,37.0,90,89,89,30.10,29.94,4,0,5,0.23
2013-1-17,41.4,38.0,33.1,38.4,34.2,28.0,90,86,79,30.37,29.89,10,1,11,0.28
2013-1-18,46.8,34.6,26.4,35.1,28.2,23.6,90,79,50,30.55,30.37,8,0,9,0.00
2013-1-19,53.2,35.7,26.6,37.4,28.7,23.8,89,78,45,30.44,30.20,10,1,13,0.00
2013-1-20,58.6,40.9,30.0,38.9,31.1,26.3,88,71,39,30.24,30.13,4,0,10,0.00
2013-1-21,48.7,35.8,26.4,30.4,22.1,14.1,88,61,33,30.26,30.12,10,1,11,0.00
2013-1-22,35.4,28.8,21.0,14.5,8.4,5.3,57,43,29,30.40,30.25,6,1,10,0.00
2013-1-23,48.0,34.6,25.7,26.6,17.1,6.9,78,50,38,30.39,30.15,24,1,16,0.00
2013-1-24,45.7,34.9,24.3,36.1,18.3,8.0,77,52,32,30.42,30.16,8,1,9,0.00
2013-1-25,32.7,30.5,24.1,29.7,23.5,10.1,89,76,45,30.38,30.12,15,1,17,0.02
2013-1-26,47.7,35.9,29.1,36.1,30.4,25.7,89,81,59,30.38,30.20,5,0,5,0.00
2013-1-27,46.9,36.6,25.5,38.5,30.9,22.4,89,80,63,30.45,30.33,5,0,6,0.00
2013-1-28,55.8,48.2,39.0,47.2,40.8,33.1,87,75,68,30.37,30.24,14,1,16,0.00
2013-1-29,53.4,49.0,42.4,49.9,45.5,39.3,89,88,83,30.25,29.88,3,0,3,0.02
2013-1-30,67.8,54.1,39.4,62.3,50.0,32.8,89,86,73,29.88,29.57,21,3,24,2.31
2013-1-31,45.0,38.6,34.2,32.8,26.3,23.5,76,62,47,30.11,29.80,14,3,63,0.00
2013-2-1,41.7,29.3,20.8,32.6,16.8,11.4,83,60,44,30.44,30.05,15,1,17,0.00
2013-2-2,36.1,28.2,20.8,29.8,22.3,14.4,85,78,67,30.39,30.09,13,1,15,0.03
2013-2-3,49.5,36.4,27.3,37.4,29.1,22.5,88,76,52,30.18,30.02,15,1,17,0.04
2013-2-4,46.6,35.2,24.4,32.0,27.1,20.8,88,73,55,30.17,29.99,6,0,8,0.00
2013-2-5,60.1,46.6,38.5,43.7,37.2,30.6,86,71,48,30.06,29.95,7,1,8,0.00
2013-2-6,63.1,45.0,30.9,41.0,33.9,28.1,89,69,34,30.22,30.05,13,1,38,0.00
2013-2-7,52.7,45.6,39.2,41.4,37.0,32.9,83,73,55,30.16,29.96,3,0,3,0.00
2013-2-8,55.0,45.1,37.9,45.8,38.0,29.7,89,77,57,30.29,29.92,16,1,18,0.09
2013-2-9,56.3,41.6,28.0,33.0,28.3,23.2,84,61,32,30.37,30.24,4,1,7,0.00
2013-2-10,61.9,45.9,36.9,44.7,36.5,27.7,89,72,36,30.25,30.01,12,1,23,0.42
2013-2-11,56.8,50.4,40.6,51.7,43.4,34.5,89,78,48,30.15,30.00,11,1,15,0.00
2013-2-12,54.7,44.1,35.4,38.2,34.2,31.3,87,70,44,30.19,29.88,12,0,13,0.02
2013-2-13,47.3,41.6,33.4,43.3,37.1,29.6,89,84,76,30.02,29.72,9,1,10,0.17
2013-2-14,55.9,43.3,33.8,39.1,34.7,30.2,88,73,50,30.10,30.01,10,1,12,0.00
2013-2-15,54.3,40.4,30.4,41.8,32.8,26.5,89,75,58,30.13,30.04,10,1,12,0.00
2013-2-16,41.2,33.1,28.2,28.8,20.3,11.7,82,60,42,30.18,30.06,8,2,11,0.00
2013-2-17,45.0,31.8,19.6,19.4,15.4,11.3,75,53,33,30.30,30.17,8,1,10,0.00
2013-2-18,58.8,42.1,23.4,33.0,25.1,16.5,77,54,36,30.33,30.00,18,2,21,0.00
2013-2-19,54.5,44.3,37.0,43.4,30.0,18.2,88,61,31,30.22,29.96,19,2,22,0.26
2013-2-20,41.4,32.6,24.4,21.0,17.7,15.2,76,56,36,30.29,30.20,4,0,5,0.00
2013-2-21,52.7,38.1,25.2,35.7,23.9,16.5,87,60,31,30.25,29.99,8,1,9,0.59
2013-2-22,49.6,44.7,38.8,45.0,40.8,35.3,89,86,81,30.09,30.01,7,0,8,0.10
2013-2-23,61.5,48.7,40.3,48.7,43.1,35.8,89,82,59,30.07,29.86,7,1,8,0.02
2013-2-24,58.8,42.4,28.9,35.8,29.0,25.0,89,63,32,30.11,29.95,6,1,7,0.00
2013-2-25,59.2,45.0,30.9,42.6,31.3,24.2,79,61,39,30.07,29.78,10,1,12,0.00
2013-2-26,54.1,46.5,40.8,45.3,41.4,35.1,89,82,66,29.79,29.52,20,2,24,0.62
2013-2-27,49.6,42.5,39.6,36.9,34.2,32.1,81,72,60,29.91,29.74,11,2,22,0.00
2013-2-28,40.8,37.9,35.8,32.1,28.0,26.0,78,67,60,30.04,29.86,10,1,11,0.00
2013-3-1,41.5,38.0,35.2,33.3,30.5,28.5,83,74,65,30.03,29.97,6,0,7,0.00
2013-3-2,38.8,35.3,31.8,30.8,27.5,23.5,85,73,63,30.09,29.97,7,1,8,0.00
2013-3-3,39.7,32.0,24.1,24.1,19.5,17.1,75,61,45,30.12,30.08,9,1,14,0.00
2013-3-4,52.3,36.0,20.8,30.9,24.5,16.6,86,65,38,30.21,30.00,5,0,7,0.00
2013-3-5,50.4,40.0,35.8,46.9,35.2,27.5,89,83,69,30.03,29.65,15,1,17,1.30
2013-3-6,36.3,33.9,30.9,28.8,27.1,24.8,86,76,73,30.28,29.92,10,2,12,0.00
2013-3-7,43.5,36.1,32.7,31.2,27.9,25.6,78,72,61,30.36,30.25,11,1,13,0.00
2013-3-8,56.1,40.1,27.3,31.4,27.0,22.7,84,63,34,30.41,30.28,9,1,11,0.00
2013-3-9,59.9,44.0,30.4,38.9,32.0,25.6,84,65,41,30.33,30.17,7,0,8,0.00
2013-3-10,72.1,54.8,38.5,41.7,36.2,32.9,84,54,27,30.17,29.99,15,2,22,0.00
2013-3-11,62.4,55.7,41.9,51.8,47.2,37.4,88,74,49,30.01,29.74,16,2,18,0.77
2013-3-12,56.1,44.1,35.8,37.5,32.5,29.2,84,65,43,30.14,29.94,7,1,8,0.00
2013-3-13,48.2,37.1,28.9,32.0,25.3,18.5,88,65,41,30.36,30.11,33,2,38,0.00
2013-3-14,50.5,38.1,26.1,31.1,21.0,16.5,69,52,32,30.42,30.25,9,1,10,0.00
2013-3-15,73.0,51.4,29.5,46.0,37.2,25.8,88,62,37,30.28,29.93,10,1,11,0.00
2013-3-16,77.2,65.4,55.2,51.4,46.5,41.9,62,51,39,29.93,29.81,14,3,16,0.00
2013-3-17,77.0,63.4,49.8,54.5,47.9,43.2,79,58,41,29.97,29.85,12,2,17,0.00
2013-3-18,61.5,56.5,50.9,55.7,51.0,46.5,89,82,64,29.92,29.76,14,2,20,0.93
2013-3-19,62.4,48.9,34.0,49.2,32.6,17.8,89,59,27,30.16,29.89,8,1,12,0.00
2013-3-20,60.4,44.3,30.6,30.7,23.4,18.4,71,46,27,30.17,29.93,12,2,14,0.00
2013-3-21,44.4,33.9,23.5,23.9,15.5,10.6,64,48,34,30.05,29.96,12,2,16,0.00
2013-3-22,45.3,36.3,26.1,29.1,21.4,15.8,69,55,42,30.10,30.01,5,0,18,0.00
2013-3-23,55.8,45.7,38.5,43.5,37.5,28.9,86,74,61,30.04,29.78,4,0,6,0.02
2013-3-24,60.4,48.2,40.8,53.6,43.4,32.1,89,83,66,29.82,29.42,14,2,16,0.77
2013-3-25,41.0,36.1,33.4,32.1,27.2,25.5,78,70,63,30.07,29.68,39,4,45,0.00
2013-3-26,42.1,36.2,32.9,29.9,26.8,25.2,81,69,57,30.31,30.07,8,1,9,0.00
2013-3-27,52.3,40.6,27.3,29.4,26.0,23.1,85,59,35,30.37,30.28,8,1,9,0.00
2013-3-28,61.0,42.3,26.8,32.6,26.5,22.3,86,58,29,30.38,30.26,8,1,10,0.00
2013-3-29,45.7,40.4,32.7,41.8,34.0,24.4,88,78,59,30.38,30.25,6,0,7,0.27
2013-3-30,58.6,48.7,41.9,48.1,43.5,38.9,89,83,65,30.25,30.02,18,0,21,0.26
2013-3-31,63.0,55.2,48.0,56.5,51.1,45.0,89,86,73,30.02,29.88,8,1,11,0.43
2013-4-1,66.0,51.6,36.5,54.5,41.4,33.5,89,71,43,30.11,29.92,10,1,12,0.00
2013-4-2,57.4,46.9,33.4,36.6,27.8,24.2,73,50,30,30.26,30.11,7,1,8,0.00
2013-4-3,58.8,49.3,35.2,28.1,24.7,20.7,61,40,27,30.28,30.17,10,1,16,0.00
2013-4-4,50.5,43.3,39.0,41.1,36.1,24.1,89,78,36,30.19,30.01,3,0,4,0.80
2013-4-5,67.8,51.7,38.5,46.2,38.7,35.3,89,66,33,30.11,30.00,8,1,10,0.00
2013-4-6,73.2,55.5,35.8,45.6,38.6,31.8,87,58,30,30.20,30.06,13,1,15,0.00
2013-4-7,75.4,60.9,46.6,49.7,43.8,36.8,72,55,37,30.18,30.05,24,2,28,0.00
2013-4-8,77.7,63.3,48.2,56.8,50.0,43.5,85,64,43,30.12,30.01,14,2,22,0.00
2013-4-9,82.9,66.6,49.8,59.7,53.4,46.0,88,65,44,30.20,30.04,17,2,19,0.00
2013-4-10,86.0,70.1,52.2,60.9,55.5,48.4,88,63,39,30.14,29.89,11,1,16,0.00
2013-4-11,81.9,70.8,59.5,62.8,57.6,54.0,88,64,46,29.92,29.56,16,2,18,1.21
2013-4-12,65.8,57.6,46.2,59.1,46.1,39.5,88,68,40,29.98,29.55,9,1,13,0.28
2013-4-13,72.3,55.7,40.1,46.5,40.7,36.8,88,62,30,30.11,29.97,8,1,9,0.00
2013-4-14,65.8,53.9,41.9,52.0,45.4,38.0,87,74,52,30.07,29.96,9,0,13,0.00
2013-4-15,76.6,63.8,54.0,59.1,54.6,50.3,88,74,52,30.11,29.95,6,1,8,0.00
2013-4-16,83.5,67.4,54.5,65.9,58.8,50.7,88,75,55,30.25,30.11,7,1,9,0.00
2013-4-17,83.5,65.3,59.5,66.8,59.5,56.0,88,82,56,30.22,30.07,11,0,14,0.25
2013-4-18,83.5,69.2,57.4,65.2,57.9,53.9,89,70,42,30.08,29.81,12,1,17,0.00
2013-4-19,73.2,57.8,45.7,61.7,48.8,34.5,88,73,59,30.14,29.70,15,2,20,0.95
2013-4-20,65.5,49.6,33.1,38.7,33.4,29.6,88,58,29,30.30,30.14,10,1,12,0.00
2013-4-21,70.0,53.2,38.5,43.4,37.3,32.6,82,58,35,30.40,30.25,6,0,8,0.00
2013-4-22,72.5,56.6,40.1,47.9,42.5,36.1,87,63,35,30.35,30.15,7,1,8,0.00
2013-4-23,74.5,60.3,44.1,51.9,46.3,40.4,88,63,41,30.24,30.03,9,0,10,0.00
2013-4-24,69.8,58.1,47.3,60.0,50.6,40.4,87,77,65,30.26,30.01,12,1,14,0.32
2013-4-25,67.6,51.8,37.2,42.8,38.2,33.7,88,63,32,30.37,30.25,6,0,8,0.00
2013-4-26,71.8,54.3,37.9,47.2,40.9,34.3,88,64,35,30.41,30.29,6,0,13,0.00
2013-4-27,55.2,52.1,50.2,49.7,48.3,46.3,89,87,72,30.38,30.12,3,0,4,1.63
2013-4-28,59.4,55.4,50.5,56.2,52.1,47.2,89,89,88,30.13,29.94,18,1,21,1.79
2013-4-29,74.5,62.5,54.5,59.6,55.1,50.8,89,78,54,30.06,29.95,6,0,7,0.00
2013-4-30,79.3,63.4,48.7,61.9,54.7,45.3,89,75,48,30.10,29.99,1,0,1,0.00
2013-5-1,80.1,66.7,54.7,63.6,57.2,51.2,88,73,50,30.21,30.09,0,0,0,0.00
2013-5-2,79.0,65.2,53.8,61.8,56.6,50.3,88,75,52,30.22,30.10,0,0,0,0.00
2013-5-3,74.3,62.1,52.5,60.1,54.4,49.0,88,77,54,30.14,29.98,0,0,0,0.00
2013-5-4,58.8,55.0,52.3,53.7,51.1,48.8,89,87,82,29.98,29.90,2,0,3,1.35
2013-5-5,56.5,52.9,49.6,53.3,49.7,46.5,89,89,88,29.92,29.79,5,0,5,2.36
2013-5-6,57.4,51.1,44.2,52.1,47.2,41.2,89,87,79,29.95,29.79,4,0,4,0.30
2013-5-7,72.7,55.9,41.2,56.2,48.7,38.0,89,78,53,30.00,29.91,4,0,5,0.02
2013-5-8,77.4,63.5,53.8,61.6,55.6,50.3,89,77,55,30.08,29.96,6,0,7,0.00
2013-5-9,82.6,66.3,52.2,65.8,57.3,49.0,89,75,49,30.13,30.02,0,0,0,0.00
2013-5-10,73.2,64.9,55.6,63.2,57.6,52.1,88,78,65,30.09,29.95,1,0,1,0.00
2013-5-11,78.6,66.0,52.7,65.3,57.7,47.6,88,76,57,30.03,29.90,0,0,0,0.02
2013-5-12,68.2,57.7,44.4,51.7,41.1,33.8,87,57,31,30.18,30.02,0,0,0,0.00
2013-5-13,70.7,54.2,38.1,44.9,38.4,34.6,88,60,31,30.27,30.15,0,0,0,0.00
2013-5-14,79.7,61.9,40.8,57.0,48.0,36.9,88,63,42,30.26,30.04,0,0,0,0.00
2013-5-15,88.9,71.4,54.5,63.6,56.6,50.7,88,62,38,30.18,30.00,0,0,0,0.00
2013-5-16,85.8,69.0,55.9,66.1,58.1,50.5,86,70,45,30.10,29.98,0,0,0,0.00
2013-5-17,79.5,68.2,60.4,67.7,62.3,56.9,88,82,65,30.12,30.02,4,0,5,0.00
2013-5-18,75.4,67.3,63.1,69.2,63.4,59.6,88,87,79,30.09,30.01,2,0,2,1.40
2013-5-19,69.4,65.3,58.8,65.7,61.7,55.3,89,88,88,30.10,30.02,8,0,9,1.98
2013-5-20,81.7,68.0,56.5,72.2,62.4,53.3,89,83,68,30.15,30.01,8,0,9,0.00
2013-5-21,88.3,70.1,61.7,74.4,64.3,58.2,88,82,60,30.07,29.94,0,0,0,1.07
2013-5-22,85.5,70.1,60.8,74.2,64.1,57.3,88,82,60,29.98,29.86,0,0,0,0.00
2013-5-23,83.3,70.5,60.6,69.0,61.1,55.4,88,73,54,30.05,29.92,0,0,0,0.00
2013-5-24,73.0,63.4,51.6,55.9,50.1,44.7,84,64,42,30.28,30.05,0,0,0,0.00
2013-5-25,75.9,60.8,45.1,55.1,48.1,41.8,89,66,35,30.36,30.18,0,0,0,0.00
2013-5-26,76.8,63.4,52.0,59.7,53.9,48.2,88,73,45,30.31,30.19,0,0,0,0.00
2013-5-27,85.8,68.9,54.0,64.9,58.2,50.5,88,71,44,30.25,30.10,0,0,0,1.31
2013-5-28,87.1,73.4,59.9,67.2,61.3,56.2,88,68,46,30.20,30.09,0,0,0,0.00
2013-5-29,86.9,73.0,59.0,69.1,62.4,55.1,88,71,49,30.24,30.10,0,0,0,0.00
2013-5-30,86.9,72.9,60.6,70.9,64.5,57.1,88,76,52,30.25,30.10,0,0,0,0.00
2013-5-31,87.3,74.1,62.2,69.9,64.5,58.7,88,73,52,30.20,30.06,6,0,7,0.00
2013-6-1,87.1,74.0,64.9,73.4,66.9,61.0,87,79,59,30.10,29.97,7,0,8,0.02
2013-6-2,79.5,71.5,66.6,72.7,67.0,62.7,88,86,75,30.00,29.90,7,0,8,1.69
2013-6-3,83.8,71.4,62.2,69.9,63.3,58.2,88,77,56,30.03,29.93,16,0,18,0.00
2013-6-4,84.2,69.7,57.6,68.8,61.2,54.0,88,76,54,30.08,29.99,3,0,4,0.00
2013-6-5,81.3,68.5,61.9,72.0,63.5,58.3,88,84,70,30.06,29.94,6,0,7,0.25
2013-6-6,82.6,70.6,62.4,72.1,64.9,58.5,88,83,67,29.96,29.78,0,0,0,0.56
2013-6-7,86.4,72.4,65.8,72.6,65.8,61.8,88,81,57,29.89,29.74,0,0,0,0.02
2013-6-8,82.2,71.5,64.2,70.0,64.6,60.3,88,80,62,30.09,29.88,7,0,8,0.00
2013-6-9,85.6,71.1,64.8,74.7,66.1,60.8,88,84,67,30.12,29.99,22,0,22,0.21
2013-6-10,84.4,73.8,67.8,71.2,66.6,63.8,88,79,60,29.99,29.91,16,1,18,0.37
2013-6-11,89.4,75.4,63.7,73.5,66.7,59.8,88,76,52,30.07,29.98,11,0,13,0.00
2013-6-12,92.5,79.4,67.8,78.2,71.4,63.8,88,77,60,30.09,29.96,0,0,0,0.00
2013-6-13,89.4,77.8,71.4,77.8,71.1,65.7,87,80,65,29.97,29.79,5,0,45,0.21
2013-6-14,84.7,71.9,59.4,65.7,60.7,55.8,88,70,49,30.07,29.93,6,0,10,0.00
2013-6-15,86.4,71.8,58.8,68.7,62.4,55.1,88,74,52,30.15,30.06,4,0,5,0.00
2013-6-16,88.2,74.8,64.0,73.3,66.4,60.3,88,77,53,30.15,30.01,4,0,16,0.07
2013-6-17,83.1,73.1,67.8,74.8,67.7,63.8,88,83,69,30.07,29.94,4,0,5,0.09
2013-6-18,79.5,70.4,64.2,73.8,65.9,60.7,88,86,77,29.99,29.88,13,0,16,0.93
2013-6-19,86.7,72.5,61.5,72.3,64.8,58.0,88,78,55,30.09,29.97,4,0,5,0.00
2013-6-20,88.9,73.8,63.7,74.3,66.2,60.0,88,78,58,30.23,30.09,4,0,5,0.00
2013-6-21,84.9,72.8,64.0,71.4,65.9,60.5,88,80,63,30.29,30.17,11,0,12,0.00
2013-6-22,88.3,74.5,64.2,72.9,66.3,60.5,88,77,53,30.27,30.10,4,0,16,1.31
2013-6-23,88.3,74.1,64.0,72.9,66.5,60.5,88,78,55,30.23,30.12,8,0,13,0.00
2013-6-24,88.2,74.7,65.1,75.4,67.9,61.2,88,80,61,30.24,30.10,10,0,11,0.07
2013-6-25,84.0,74.1,68.7,74.7,69.1,64.7,88,84,71,30.18,30.04,5,0,6,0.00
2013-6-26,89.8,77.4,68.4,77.6,71.0,64.3,88,81,66,30.09,29.91,5,0,6,0.00
2013-6-27,89.1,78.5,72.0,77.2,72.1,67.9,88,81,64,29.96,29.83,5,0,6,0.05
2013-6-28,88.0,76.0,68.4,77.5,70.1,64.3,88,82,64,29.87,29.70,7,0,8,0.00
2013-6-29,89.8,76.4,66.4,72.0,65.4,62.2,88,71,42,29.75,29.68,5,0,5,0.00
2013-6-30,88.0,74.1,63.5,70.7,64.8,59.8,88,74,49,29.86,29.72,4,0,5,0.24
2013-7-1,81.7,70.7,63.1,72.2,65.5,59.4,88,84,69,29.95,29.81,6,0,7,0.49
2013-7-2,83.3,71.5,65.5,73.3,66.3,61.5,88,84,67,30.10,29.93,6,0,7,0.05
2013-7-3,72.0,68.8,66.4,67.9,65.0,62.7,88,88,87,30.19,30.08,6,0,9,1.16
2013-7-4,73.8,68.9,66.0,70.0,65.1,62.3,88,88,87,30.19,30.09,12,0,14,0.83
2013-7-5,77.0,71.3,67.3,71.5,67.3,63.6,88,87,82,30.20,30.12,9,0,10,0.05
2013-7-6,72.9,68.7,66.6,69.1,65.0,62.9,89,88,87,30.19,30.13,8,0,9,1.50
2013-7-7,75.4,70.1,66.6,71.6,66.4,62.9,89,88,85,30.19,30.12,9,0,10,1.65
2013-7-8,87.6,75.8,68.9,78.1,70.4,65.0,88,84,69,30.24,30.12,11,0,13,0.00
2013-7-9,88.3,76.2,71.2,78.9,71.4,67.2,88,85,73,30.20,30.08,4,0,10,0.00
2013-7-10,90.5,76.0,70.0,79.7,71.0,65.9,88,85,69,30.13,29.96,12,0,14,0.14
2013-7-11,85.6,74.3,67.8,76.1,69.4,64.1,88,85,72,30.02,29.91,3,0,20,0.00
2013-7-12,85.3,73.8,65.5,73.1,66.6,61.8,88,79,61,30.02,29.94,3,0,5,0.00
2013-7-13,84.4,70.8,62.4,73.1,66.0,58.9,89,85,64,30.10,29.98,3,0,4,0.33
2013-7-14,87.1,74.0,67.6,76.2,69.1,63.9,88,85,67,30.23,30.09,3,0,6,0.40
2013-7-15,87.6,76.3,65.8,77.0,69.8,62.2,88,81,66,30.32,30.23,3,0,17,0.00
2013-7-16,91.4,78.9,67.8,77.0,71.2,64.1,88,78,59,30.36,30.25,4,0,8,1.45
2013-7-17,95.0,80.8,69.6,78.8,72.4,65.7,88,77,53,30.33,30.18,4,0,22,0.00
2013-7-18,90.1,78.8,70.0,78.0,71.5,66.2,88,79,64,30.26,30.07,8,0,9,0.00
2013-7-19,92.1,79.9,69.4,78.1,72.0,65.7,88,78,53,30.15,29.99,4,0,13,0.00
2013-7-20,92.1,80.0,70.0,78.3,72.0,66.2,88,77,56,30.07,29.93,5,0,6,0.51
2013-7-21,85.6,73.6,70.9,77.5,69.4,66.8,88,87,76,30.05,29.96,6,0,7,0.46
2013-7-22,83.7,74.3,70.5,76.0,69.7,66.4,88,86,74,30.02,29.87,9,0,10,0.16
2013-7-23,85.8,76.0,69.6,76.1,70.7,65.9,88,84,70,29.97,29.85,4,0,27,0.00
2013-7-24,86.5,74.9,67.8,75.7,69.8,64.1,88,84,66,29.93,29.85,3,0,4,0.03
2013-7-25,86.5,72.9,61.5,72.1,64.9,58.0,89,77,54,30.08,29.93,3,0,4,0.00
2013-7-26,85.8,73.1,61.5,73.9,66.1,58.0,89,80,65,30.11,30.00,3,0,3,0.00
2013-7-27,80.4,72.9,66.9,72.1,67.9,63.2,88,85,70,30.03,29.90,3,0,5,0.00
2013-7-28,84.7,72.7,63.0,68.6,64.6,58.7,88,77,52,30.11,29.94,4,0,5,0.00
2013-7-29,83.8,68.7,57.7,65.3,59.0,54.5,89,73,43,30.22,30.10,0,0,0,0.00
2013-7-30,84.4,70.6,59.9,71.1,63.9,56.4,88,80,60,30.26,30.15,0,0,0,1.45
2013-7-31,75.7,69.5,63.7,70.8,65.5,60.1,88,87,84,30.18,30.00,5,0,6,0.05
2013-8-1,86.4,75.6,67.3,74.8,68.8,63.6,88,80,62,30.03,29.97,3,0,12,0.21
2013-8-2,87.3,73.7,63.1,71.4,65.7,59.6,88,78,51,30.08,30.01,5,0,5,0.00
2013-8-3,84.9,75.2,66.7,74.8,69.1,63.0,88,82,69,30.08,30.01,3,0,3,0.00
2013-8-4,87.6,76.5,67.1,73.5,67.7,61.1,88,75,53,30.11,30.04,3,0,4,0.00
2013-8-5,85.6,72.6,59.7,70.0,64.0,56.2,88,76,45,30.12,30.00,3,0,10,0.00
2013-8-6,87.1,75.6,70.0,74.8,69.8,65.9,88,83,65,30.04,29.97,13,0,15,0.00
2013-8-7,83.5,74.6,70.9,75.9,70.2,66.8,88,86,76,30.07,29.97,3,0,20,0.03
2013-8-8,83.1,74.0,69.4,76.2,69.7,65.7,88,86,79,30.08,30.00,3,0,9,0.15
2013-8-9,91.2,75.2,68.7,79.5,70.1,65.0,88,85,61,30.11,30.03,4,0,5,0.24
2013-8-10,90.0,75.0,70.2,79.4,70.5,66.4,88,86,68,30.15,30.09,7,0,8,0.24
2013-8-11,89.6,75.3,69.6,78.2,70.4,65.9,88,85,66,30.19,30.08,21,0,24,0.98
2013-8-12,82.9,73.2,68.9,77.4,69.3,65.2,88,88,81,30.15,30.00,0,0,1,0.03
2013-8-13,86.2,75.8,69.3,76.1,70.3,65.5,89,83,67,30.02,29.91,3,0,12,0.00
2013-8-14,81.9,70.8,60.6,68.5,63.5,56.4,89,78,58,30.09,29.97,2,0,7,0.00
2013-8-15,82.2,69.5,58.6,68.8,62.1,54.8,88,78,60,30.12,30.04,3,0,4,0.00
2013-8-16,80.4,69.5,61.5,69.6,64.2,58.0,89,83,69,30.13,30.06,2,0,3,0.00
2013-8-17,75.2,68.5,64.6,68.9,64.2,61.0,89,86,77,30.17,30.10,3,0,3,1.10
2013-8-18,78.4,69.1,65.5,70.8,65.1,61.8,88,87,76,30.22,30.13,3,0,4,0.44
2013-8-19,76.1,70.7,67.1,71.3,66.7,63.4,89,87,83,30.18,30.09,16,0,18,0.00
2013-8-20,85.8,74.6,67.3,75.8,69.2,63.6,89,83,66,30.20,30.11,5,0,7,0.00
2013-8-21,80.2,72.8,68.7,73.9,68.7,65.0,88,87,80,30.24,30.15,6,0,8,0.16
2013-8-22,88.3,75.7,68.2,76.3,70.0,64.5,89,83,63,30.21,30.07,10,0,24,0.00
2013-8-23,88.9,73.9,66.9,77.1,68.0,63.2,89,83,60,30.13,30.03,5,0,14,0.11
2013-8-24,85.3,72.9,66.2,75.7,67.3,62.5,89,83,65,30.27,30.11,17,0,20,0.00
2013-8-25,84.7,71.7,63.0,69.2,64.3,59.4,89,79,57,30.39,30.26,6,0,7,0.00
2013-8-26,85.8,71.7,62.1,70.1,64.3,58.5,89,79,55,30.34,30.13,10,0,11,0.00
2013-8-27,87.6,74.4,63.7,73.7,67.3,60.1,89,80,60,30.15,30.03,9,0,11,0.00
2013-8-28,89.8,76.4,66.9,76.2,69.9,63.2,88,81,61,30.07,29.98,22,0,25,0.00
2013-8-29,93.4,77.6,69.3,79.5,71.1,65.5,88,81,56,30.01,29.92,13,0,15,0.00
2013-8-30,92.3,76.9,69.4,79.1,71.3,65.7,88,83,62,30.01,29.90,5,0,6,0.00
2013-8-31,92.3,78.3,70.5,79.0,72.2,66.4,88,82,59,29.96,29.84,0,0,0,0.03
2013-9-1,90.0,75.7,67.8,77.3,70.0,64.1,88,83,64,29.91,29.83,0,0,0,0.03
2013-9-2,88.5,76.4,68.4,76.2,70.3,64.6,88,82,64,29.95,29.83,0,0,0,0.00
2013-9-3,89.6,76.6,66.0,74.9,68.9,62.0,88,78,57,30.01,29.85,0,0,0,0.00
2013-9-4,87.6,72.1,61.2,69.9,63.2,57.6,88,76,45,30.11,30.01,0,0,0,0.00
2013-9-5,87.1,71.3,59.7,69.5,62.4,56.2,89,76,48,30.16,30.09,0,0,0,0.00
2013-9-6,89.8,72.8,61.5,69.8,63.5,58.0,89,75,43,30.17,30.05,0,0,0,0.00
2013-9-7,89.2,73.6,62.2,73.3,66.1,58.7,89,79,56,30.12,29.99,0,0,0,0.00
2013-9-8,90.7,75.0,64.9,75.1,68.2,61.3,89,80,55,30.03,29.94,0,0,0,0.00
2013-9-9,91.4,77.4,67.8,75.1,69.6,64.1,88,78,56,30.10,30.00,0,0,0,0.00
2013-9-10,90.7,77.1,67.1,75.7,69.1,63.4,88,78,53,30.21,30.09,0,0,0,0.00
2013-9-11,92.1,78.3,70.5,75.6,70.5,66.8,88,78,53,30.22,30.08,3,0,11,0.00
2013-9-12,92.3,78.3,68.9,75.6,70.0,65.2,88,77,53,30.09,29.89,4,0,5,0.03
2013-9-13,82.9,71.4,58.8,68.6,60.3,51.4,89,70,43,29.98,29.89,4,0,11,0.00
2013-9-14,80.4,63.4,50.9,58.1,52.9,47.4,89,71,45,30.07,29.97,6,0,7,0.00
2013-9-15,83.8,66.7,54.0,67.1,59.1,50.8,89,78,53,30.16,30.07,4,0,5,0.00
2013-9-16,87.4,70.4,58.8,68.8,61.2,55.3,89,75,46,30.16,30.08,3,0,9,0.00
2013-9-17,81.1,70.3,62.1,68.0,62.5,58.2,88,77,62,30.21,30.11,9,0,10,0.00
2013-9-18,80.4,70.1,62.4,67.4,62.7,58.5,88,78,58,30.21,30.10,16,0,18,0.00
2013-9-19,85.5,70.8,60.6,68.3,63.1,57.1,89,78,56,30.18,30.03,3,0,8,0.00
2013-9-20,88.7,73.0,62.2,69.2,64.1,58.7,89,76,47,30.07,29.87,7,0,14,0.00
2013-9-21,69.1,65.7,55.9,64.8,62.0,52.6,89,88,86,29.88,29.75,3,0,4,2.05
2013-9-22,78.6,62.9,50.7,62.3,54.7,47.5,89,77,49,29.92,29.82,6,0,7,0.00
2013-9-23,81.1,64.1,51.8,64.9,56.9,48.6,89,79,56,30.01,29.91,10,0,11,0.00
2013-9-24,74.8,65.1,56.5,65.5,59.9,53.3,89,84,68,30.03,29.88,8,0,9,0.00
2013-9-25,67.6,65.4,63.5,64.3,62.0,60.3,89,89,88,29.88,29.82,1,0,2,0.41
2013-9-26,82.6,69.1,60.1,70.0,62.7,56.9,89,81,56,30.02,29.87,0,0,0,0.00
2013-9-27,82.8,66.2,56.3,68.0,59.3,53.1,89,80,54,30.14,30.01,0,0,0,0.00
2013-9-28,81.1,65.8,55.4,65.4,59.0,52.2,89,80,56,30.21,30.08,0,0,0,0.00
2013-9-29,76.3,65.2,56.8,61.9,58.4,53.6,89,79,55,30.13,29.99,0,0,0,0.00
2013-9-30,78.6,64.1,54.7,65.1,57.6,51.5,89,81,56,30.08,29.98,0,0,0,0.00
2013-10-1,82.6,66.3,55.9,67.7,60.1,52.7,89,81,59,30.15,30.04,0,0,0,0.00
2013-10-2,84.4,69.3,61.0,71.9,63.5,57.8,89,83,61,30.17,30.05,0,0,0,0.00
2013-10-3,86.4,71.7,63.3,70.6,64.4,60.1,89,79,52,30.12,30.03,0,0,0,0.00
2013-10-4,83.5,68.7,59.5,70.1,63.0,56.3,89,83,62,30.16,30.06,0,0,0,0.00
2013-10-5,85.8,71.1,61.7,72.5,64.7,58.2,89,81,59,30.13,29.98,0,0,0,0.00
2013-10-6,85.8,70.9,58.8,71.2,64.4,54.9,89,81,56,30.00,29.80,11,1,18,0.08
2013-10-7,71.6,60.1,51.6,55.9,51.7,47.5,89,76,51,30.06,29.89,4,0,7,0.00
2013-10-8,75.0,59.4,48.0,55.8,50.2,44.7,89,74,47,30.12,30.05,6,0,7,0.00
2013-10-9,77.7,62.2,50.7,61.9,55.0,47.5,89,79,56,30.19,30.08,8,0,9,0.00
2013-10-10,80.2,63.4,53.2,63.1,55.0,50.1,89,76,49,30.15,30.03,4,0,6,0.00
2013-10-11,80.8,62.9,51.1,62.1,54.8,47.9,89,77,48,30.08,29.98,4,0,5,0.00
2013-10-12,83.8,64.1,52.3,64.6,56.3,49.2,89,78,48,30.11,30.00,5,0,6,0.00
2013-10-13,84.4,65.9,52.7,65.2,57.0,49.5,89,76,46,30.21,30.10,2,0,6,0.00
2013-10-14,81.3,66.4,55.9,65.6,59.5,52.7,89,79,57,30.21,30.08,4,0,5,0.00
2013-10-15,74.1,65.9,60.1,63.2,60.2,56.9,89,82,67,30.13,30.02,4,0,4,0.00
2013-10-16,70.2,63.6,59.2,62.3,58.7,55.7,89,84,73,30.05,29.94,3,0,3,0.03
2013-10-17,68.2,61.7,48.7,64.6,57.7,46.0,90,87,78,30.00,29.87,4,0,6,0.08
2013-10-18,66.7,54.2,46.2,53.8,47.6,43.5,90,80,55,30.07,29.95,5,0,5,0.00
2013-10-19,68.5,54.2,43.5,56.3,48.8,40.2,90,83,62,30.03,29.89,3,0,8,0.00
2013-10-20,66.0,48.6,36.7,48.4,41.3,34.0,90,78,50,30.09,30.00,3,0,5,0.00
2013-10-21,71.8,52.9,41.5,54.0,45.5,38.7,90,78,46,30.11,29.97,4,0,5,0.00
2013-10-22,68.5,56.7,48.9,55.5,50.3,45.2,89,80,62,30.00,29.84,5,0,6,0.00
2013-10-23,52.9,47.1,36.3,46.6,39.8,32.8,89,76,57,30.09,29.80,6,0,11,0.00
2013-10-24,59.7,46.4,35.2,43.5,38.3,31.9,89,74,55,30.27,30.07,6,0,6,0.00
2013-10-25,53.8,39.9,29.5,33.9,28.9,25.1,85,67,41,30.43,30.26,14,0,16,0.00
2013-10-26,60.6,43.9,28.6,39.1,32.6,25.8,90,68,41,30.32,30.08,11,1,13,0.00
2013-10-27,59.2,49.5,45.1,45.4,39.9,36.6,79,70,58,30.12,30.07,2,0,2,0.00